This demonstration page uses our WeatherBlox Daily Observations layout. Learn more.

Left ArrowRight Arrow

Hourly Observations for May 30, 2017

Temp ( °F °C ) Dew Point ( °F °C ) Humidity (%) Winds ( mph kmh ) Pressure ( in mb ) Visibility ( mi km ) Precip ( " mm )
12:15 am 00:15 Clear 55 12.9 40 4.6 57 57 N N/A 30.09 1019 10 16 N/A
12:35 am 00:35 Clear 54 12.4 40 4.6 59 59 N N/A 30.12 1020 10 16 N/A
12:55 am 00:55 Clear 54 12 41 5 63 63 N N/A 30.12 1020 10 16 N/A
1:15 am 01:15 Clear 52 11.2 41 5.1 66 66 N N/A 30.12 1020 10 16 N/A
1:35 am 01:35 Clear 53 11.8 42 5.5 66 66 N N/A 30.12 1020 10 16 N/A
1:55 am 01:55 Clear 49 9.5 41 5.1 74 74 N N/A 30.15 1021 10 16 N/A
2:15 am 02:15 Clear 51 10.8 41 5 68 68 N N/A 30.09 1019 10 16 N/A
2:35 am 02:35 Clear 50 10 41 5.2 72 72 N N/A 30.12 1020 10 16 N/A
2:55 am 02:55 Clear 50 10 42 5.4 73 73 N N/A 30.12 1020 10 16 N/A
3:15 am 03:15 Clear 49 9.2 41 5.2 76 76 N N/A 30.12 1020 10 16 N/A
3:35 am 03:35 Clear 48 8.8 40 4.7 76 76 N N/A 30.12 1020 10 16 N/A
3:55 am 03:55 Clear 48 8.7 41 5 78 78 N N/A 30.12 1020 10 16 N/A
4:15 am 04:15 Clear 47 8.5 41 4.9 78 78 N N/A 30.12 1020 10 16 N/A
4:35 am 04:35 Clear 47 8.5 40 4.5 76 76 NW 6 9 30.12 1020 10 16 N/A
4:55 am 04:55 Clear 48 8.9 40 4.4 74 74 N N/A 30.12 1020 10 16 N/A
5:15 am 05:15 Clear 47 8.4 40 4.4 76 76 N N/A 30.12 1020 10 16 N/A
5:35 am 05:35 Clear 44 6.9 39 4.1 83 83 N N/A 30.12 1020 10 16 N/A
5:55 am 05:55 Clear 46 7.8 40 4.6 80 80 N N/A 30.15 1021 10 16 N/A
6:15 am 06:15 Sunny 47 8.1 40 4.6 79 79 NNE 5 7 30.15 1021 10 16 N/A
6:35 am 06:35 Sunny 47 8.5 41 5.1 79 79 N 6 9 30.12 1020 10 16 N/A
6:55 am 06:55 Sunny 48 9.1 42 5.5 78 78 N 3 6 30.12 1020 10 16 N/A
7:15 am 07:15 Sunny 51 10.4 43 6 74 74 N 5 7 30.09 1019 10 16 N/A
7:35 am 07:35 Sunny 53 11.6 43 6.2 70 70 N N/A 30.12 1020 10 16 N/A
7:55 am 07:55 Sunny 56 13.3 44 6.6 64 64 N N/A 30.12 1020 10 16 N/A
8:15 am 08:15 Sunny 58 14.5 43 6.1 57 57 N N/A 30.09 1019 10 16 N/A
8:35 am 08:35 Sunny 60 15.8 43 6.2 53 53 NE 3 6 30.09 1019 10 16 N/A
8:55 am 08:55 Sunny 64 17.6 41 5.2 44 44 ENE 3 6 30.06 1018 10 16 N/A
9:15 am 09:15 Sunny 65 18.6 39 3.8 38 38 E 3 6 30.06 1018 10 16 N/A
9:35 am 09:35 Sunny 67 19.2 37 2.9 34 34 E 3 6 30.03 1017 10 16 N/A
9:55 am 09:55 Sunny 67 19.7 38 3.1 33 33 E 5 7 30.03 1017 10 16 N/A
10:15 am 10:15 Sunny 68 20.1 36 2.2 31 31 E 3 6 30.03 1017 10 16 N/A
10:35 am 10:35 Sunny 69 20.5 36 2.2 30 30 NE 5 7 30.00 1016 10 16 N/A
10:55 am 10:55 Sunny 70 21 37 2.8 30 30 ESE 3 6 30.00 1016 10 16 N/A
11:15 am 11:15 Sunny 71 21.5 37 3 30 30 N N/A 30.00 1016 10 16 N/A
11:35 am 11:35 Sunny 72 22.2 38 3.6 30 30 N N/A 30.00 1016 10 16 N/A
11:55 am 11:55 Sunny 73 22.5 35 1.7 25 25 N N/A 30.00 1016 10 16 N/A
12:15 pm 12:15 Sunny 73 22.9 35 1.4 24 24 N 6 9 30.00 1016 10 16 N/A
12:35 pm 12:35 Sunny 73 23 37 2.8 27 27 NE 6 9 30.00 1016 10 16 N/A
12:55 pm 12:55 Sunny 74 23.5 35 1.8 24 24 NNE 8 13 30.00 1016 10 16 N/A
1:15 pm 13:15 Sunny 75 23.8 33 0.3 21 21 NNW 5 7 30.00 1016 10 16 N/A
1:35 pm 13:35 Sunny 75 24 35 1.4 23 23 W 6 9 29.94 1014 10 16 N/A
1:55 pm 13:55 Sunny 76 24.7 36 2.2 23 23 NNW 8 13 29.94 1014 10 16 N/A
2:15 pm 14:15 Sunny 75 24.1 34 1.3 22 22 N 5 7 29.94 1014 10 16 N/A
2:35 pm 14:35 Sunny 77 25 36 2.1 22 22 NW 10 17 29.94 1014 10 16 N/A
2:55 pm 14:55 Sunny 77 25.1 37 2.9 24 24 WNW 9 15 29.94 1014 10 16 N/A
3:15 pm 15:15 Partly Cloudy 77 25.2 37 2.5 23 23 WNW 14 22 29.94 1014 10 16 N/A
3:35 pm 15:35 Partly Cloudy 78 25.5 37 2.6 23 23 W 9 15 29.94 1014 10 16 N/A
3:55 pm 15:55 Sunny 78 25.7 35 1.6 21 21 NW 10 17 29.91 1013 10 16 N/A
4:15 pm 16:15 Partly Cloudy 79 25.9 36 2.3 22 22 WNW 17 28 29.91 1013 10 16 N/A
4:35 pm 16:35 Partly Cloudy 79 26.3 32 0.2 18 18 WNW 14 22 29.91 1013 10 16 N/A
4:55 pm 16:55 Sunny 80 26.5 32 -0.2 17 17 W 16 26 29.91 1013 10 16 N/A
5:15 pm 17:15 Sunny 80 26.6 31 -0.5 17 17 WNW 14 22 29.91 1013 10 16 N/A
5:35 pm 17:35 Sunny 80 26.4 30 -0.9 17 17 NW 9 15 29.91 1013 10 16 N/A
5:55 pm 17:55 Sunny 80 26.5 30 -1.3 16 16 NW 15 24 29.91 1013 10 16 N/A
6:15 pm 18:15 Sunny 79 26.3 29 -1.6 16 16 NNW 9 15 29.91 1013 10 16 N/A
6:35 pm 18:35 Sunny 80 26.5 30 -1.3 16 16 NW 10 17 29.88 1012 10 16 N/A
6:55 pm 18:55 Sunny 79 26.2 28 -2.1 15 15 WNW 10 17 29.88 1012 10 16 N/A
7:15 pm 19:15 Sunny 79 26 28 -2.1 16 16 NW 12 19 29.88 1012 10 16 N/A
7:35 pm 19:35 Sunny 78 25.8 30 -1.1 17 17 NW 9 15 29.88 1012 10 16 N/A
7:55 pm 19:55 Sunny 78 25.3 30 -0.9 18 18 NNW 6 9 29.88 1012 10 16 N/A
8:15 pm 20:15 Sunny 76 24.6 30 -1.3 18 18 NNW 9 15 29.91 1013 10 16 N/A
8:35 pm 20:35 Sunny 74 23.6 32 -0.1 21 21 N 8 13 29.91 1013 10 16 N/A
8:55 pm 20:55 Sunny 72 22.2 33 0.3 23 23 N 6 9 29.94 1014 10 16 N/A
9:15 pm 21:15 Clear 69 20.3 34 1.2 28 28 N 7 11 29.94 1014 10 16 N/A
9:35 pm 21:35 Clear 68 19.8 35 1.4 29 29 N 6 9 29.94 1014 10 16 N/A
9:55 pm 21:55 Clear 62 16.7 37 2.9 40 40 NNE 9 15 30.00 1016 10 16 N/A
10:15 pm 22:15 Clear 62 16.8 38 3.3 41 41 NE 9 15 30.00 1016 10 16 N/A
10:35 pm 22:35 Clear 61 16.2 39 3.7 44 44 NE 10 17 30.03 1017 10 16 N/A
10:55 pm 22:55 Clear 59 15.2 40 4.2 48 48 NE 10 17 30.03 1017 10 16 N/A
11:15 pm 23:15 Clear 61 16 40 4.2 46 46 NE 7 11 30.03 1017 10 16 N/A
11:35 pm 23:35 Clear 60 15.7 40 4.3 47 47 E 6 9 30.03 1017 10 16 N/A
11:55 pm 23:55 Clear 58 14.6 40 4.5 51 51 E 6 9 30.03 1017 10 16 N/A

Powered by AerisWeather